HJ3GNC-12 Weather Reports


Display with metric or nautical units.
time (UTC)temp
F
wind
direction
speed
MPH
gust
MPH
rain 1hr
in
rain 24hr
in
rain mn
in
humidity
%
barometer
mb
20260507101609 50 80 0.0 0.0 0.00 0.00 0.00 92 1020.0
20260507100029 50 102 0.0 0.0 0.00 0.00 0.00 91 1020.0
20260507094447 50 102 0.0 0.0 0.00 0.00 0.00 91 1020.0
20260507092904 50 98 0.0 0.0 0.00 0.00 0.00 91 1020.0
20260507091319 50 0 0.0 0.0 0.00 0.00 0.00 92 1020.0
20260507085734 51 350 0.0 0.0 0.00 0.00 0.00 93 1020.0
20260507084151 51 350 0.0 0.0 0.00 0.00 0.00 91 1020.0
20260507082607 51 350 0.0 0.0 0.00 0.00 0.00 91 1020.0
20260507081021 51 350 0.0 0.0 0.00 0.00 0.00 91 1020.0
20260507065136 51 60 0.0 0.0 0.00 0.00 0.00 91 1020.0
20260507063551 52 60 0.0 0.0 0.00 0.00 0.00 90 1021.0
20260507062008 52 60 0.0 0.0 0.00 0.00 0.00 89 1021.0
20260507060426 52 40 0.0 0.0 0.00 0.00 0.00 88 1021.0
20260507054844 52 40 0.0 0.0 0.00 0.00 0.00 87 1021.0
20260507053304 52 40 0.0 0.0 0.00 0.00 0.00 86 1021.0
20260507051720 52 40 0.0 0.0 0.00 0.00 0.00 85 1022.0
20260507015202 58 130 0.0 0.0 0.00 0.00 0.00 63 1021.0
20260507013617 58 130 0.0 0.0 0.00 0.00 0.00 63 1021.0
20260507012034 58 130 0.0 0.0 0.00 0.00 0.00 63 1020.0
20260506233009 59 138 0.0 0.0 0.00 0.00 0.00 85 1018.0
20260506231424 59 147 0.0 0.0 0.00 0.00 0.00 85 1017.0
20260506225821 59 147 0.0 0.0 0.00 0.00 0.00 85 1017.0
20260506224233 60 147 0.0 0.0 0.00 0.00 0.00 85 1016.0
20260506222640 60 151 0.0 0.0 0.00 0.00 0.00 85 1015.0
20260506221051 60 155 0.0 0.0 0.00 0.00 0.00 85 1015.0
20260506215457 60 155 0.0 0.0 0.00 0.00 0.00 85 1015.0
20260506213836 60 151 0.0 0.0 0.00 0.00 0.00 85 1015.0
20260506212204 60 162 0.0 0.0 0.00 0.00 0.00 85 1014.0
20260506210556 60 153 0.0 0.0 0.00 0.00 0.00 85 1014.0
20260506205007 59 162 0.0 0.0 0.00 0.00 0.00 85 1014.0
20260506203424 60 159 0.0 0.0 0.00 0.00 0.00 85 1014.0
20260506200236 60 159 0.0 0.0 0.00 0.00 0.00 85 1014.0
20260506194653 60 167 0.0 0.0 0.00 0.00 0.00 86 1014.0
20260506193108 60 167 0.0 0.0 0.00 0.00 0.00 87 1015.0
20260506191512 60 120 0.0 0.0 0.00 0.00 0.00 89 1016.0
20260506185914 59 120 0.0 0.0 0.00 0.00 0.00 91 1016.0
20260506184326 59 148 0.0 0.0 0.00 0.00 0.00 92 1016.0
20260506182742 58 148 0.0 0.0 0.00 0.00 0.00 92 1017.0
20260506181151 57 149 0.0 0.0 0.00 0.00 0.00 92 1017.0
20260506175542 58 145 0.0 0.0 0.00 0.00 0.00 92 1017.0
20260506173954 57 145 0.0 0.0 0.00 0.00 0.00 92 1018.0
20260506172409 57 122 0.0 0.0 0.00 0.00 0.00 92 1019.0
20260506170825 57 122 0.0 0.0 0.00 0.00 0.00 92 1019.0
20260506165241 57 122 0.0 0.0 0.00 0.00 0.00 92 1019.0
20260506163647 57 122 0.0 0.0 0.00 0.00 0.00 92 1019.0
20260506162039 57 101 0.0 0.0 0.00 0.00 0.00 92 1019.0
20260506160450 57 101 0.0 0.0 0.00 0.00 0.00 92 1019.0
20260506154859 56 101 0.0 0.0 0.00 0.00 0.00 93 1019.0
20260506153307 56 101 0.0 0.0 0.00 0.00 0.00 93 1019.0
20260506151634 56 99 0.0 0.0 0.00 0.00 0.00 93 1019.0
20260506135709 56 70 0.0 0.0 0.00 0.00 0.00 99 1019.0
20260506134124 52 70 0.0 0.0 0.00 0.00 0.00 98 1019.0
20260506132538 52 70 0.0 0.0 0.00 0.00 0.00 98 1020.0
20260506130954 52 0 0.0 0.0 0.00 0.00 0.00 98 1020.0
20260506125408 52 0 0.0 0.0 0.00 0.00 0.00 98 1020.0
20260506123817 52 20 0.0 0.0 0.00 0.00 0.00 98 1020.0
20260506122229 52 40 0.0 0.0 0.00 0.00 0.00 98 1020.0
20260506120639 52 60 0.0 0.0 0.00 0.00 0.00 98 1020.0
20260506115052 52 0 0.0 0.0 0.00 0.00 0.00 98 1020.0
20260506113507 52 0 0.0 0.0 0.00 0.00 0.00 98 1020.0
20260506111925 52 0 0.0 0.0 0.00 0.00 0.00 98 1020.0
20260506110344 52 0 0.0 0.0 0.00 0.00 0.00 98 1020.0
20260506104759 52 0 0.0 0.0 0.00 0.00 0.00 98 1020.0
20260506103212 52 0 0.0 0.0 0.00 0.00 0.00 98 1020.0